Tracking 27422 objects as of 30-May-2023
HD Live streaming from Space Station
objects crossing your sky now

STARLINK 1031

Track STARLINK 1031 now!
10-day predictions
STARLINK 1031 is classified as:


NORAD ID: 44736
Int'l Code: 2019-074Z
Perigee: 553.5 km
Apogee: 555.3 km
Inclination: 53.1 °
Period: 95.6 minutes
Semi major axis: 6925 km
RCS: Unknown
Launch date: November 11, 2019
Source: United States (US)
Launch site: AIR FORCE EASTERN TEST RANGE (AFETR)
Your satellite tracking list
Your tracking list is empty




NASA's NSSDC Master Catalog

Two Line Element Set (TLE):
1 44736U 19074Z   23150.18518869  .00001935  00000-0  14882-3 0  9996
2 44736  53.0540  80.9016 0001262  93.8422 266.2711 15.06389681195733
Source of the keplerian elements: AFSPC